Regional Weather Roundup
Issued by NWS

Home | Current Version | Previous Version | Text Only | Print | Product List | Glossary Off
Versions: 1 2 3 4 5 6 7 8 9 10 11 12 13 14 15 16 17 18 19 20 21 22 23 24 25 26 27 28 29 30 31 32 33 34 35 36 37 38 39 40 41 42 43 44 45 46 47 48 49 50

000
ASUS43 KMPX 280601
RWRMN
WEATHER ROUNDUP FOR MINNESOTA
NATIONAL WEATHER SERVICE TWIN CITIES/CHANHASSEN MN
100 AM CDT SAT MAR 28 2015


NOTE: "FAIR" INDICATES FEW OR NO CLOUDS BELOW 12,000 FEET WITH NO
SIGNIFICANT WEATHER AND/OR OBSTRUCTIONS TO VISIBILITY. N/A MEANS
CURRENT SKY AND/OR WEATHER CONDITIONS ARE NOT AVAILABLE.

MNZ060>063-068>070-280700-
   Twin Cities Metro

CITY           SKY/WX    TMP DP  RH WIND       PRES   REMARKS
TWIN CITIES    MOCLDY    25   9  50 SE5       30.18F WCI  19
6HR MIN TEMP:  25; 6HR MAX TEMP:  32;

ST PAUL        MOCLDY    25   9  50 S5        30.20S WCI  19
CRYSTAL        CLOUDY    28  10  46 CALM      30.17S
BLAINE         PTCLDY    27  10  50 CALM      30.17F
LAKEVILLE      PTCLDY    18  12  79 CALM      30.18S
EDEN PRAIRIE   CLOUDY    25  10  53 SE3       30.17S
6HR MIN TEMP:  24; 6HR MAX TEMP:  30;

SOUTH ST PAUL  PTCLDY    27  11  52 S3        30.18F
LAKE ELMO      CLOUDY    27  18  69 CALM      30.19S
$$
MNZ001>005-007-008-013>017-022>024-027-028-280700-
   Northwest Minnesota

CITY           SKY/WX    TMP DP  RH WIND       PRES   REMARKS
BEMIDJI        FAIR      20  12  72 CALM      30.11S
HALLOCK        CLEAR     21  19  93 S7        30.11F WCI  13
ROSEAU         CLEAR     25  19  80 CALM      30.12F
WARROAD        CLEAR     19  16  86 CALM      30.12F
THIEF RVR FALL CLEAR     27  18  69 SE5       30.12R WCI  21
CROOKSTON      CLEAR     21  18  86 SE6       30.13S WCI  14
FOSSTON        FAIR      21  12  68 CALM      30.12S
DETROIT LAKES  CLEAR     27  16  63 S3        30.12S
MOORHEAD       CLOUDY    30  21  69 SE6       30.12S WCI  24
PARK RAPIDS    CLEAR     25  12  58 SE3       30.11R
MAHNOMEN       FAIR      24  13  63 SE5       30.11S WCI  18
$$
MNZ006-009>011-018-025>026-280700-
   North Central Minnesota

CITY           SKY/WX    TMP DP  RH WIND       PRES   REMARKS
BAUDETTE       CLEAR     19  14  81 E3        30.11S
FLAG ISLAND    CLEAR     16  10  79 CALM      30.12S
INTL FALLS     CLEAR     16  10  77 CALM      30.13R
6HR MIN TEMP:  15; 6HR MAX TEMP:  32;

WASKISH        FAIR      18  14  86 CALM      30.13R
BIG FORK       CLEAR     16  10  79 CALM      30.13S
LONGVILLE      CLEAR     18  12  79 CALM      30.13S
GRAND RAPIDS   CLEAR     19   7  58 SE6       30.13S WCI  11
CRANE LAKE     CLEAR     10   9  92 CALM      30.16S
ORR            CLEAR     18   3  53 CALM      30.11R
COOK           CLEAR     19   7  58 CALM      30.14S
WALKER         FAIR      23   8  52 CALM      30.12S
$$
MNZ012-019>021-037-280700-
   Northeast Minnesota

CITY           SKY/WX    TMP DP  RH WIND       PRES   REMARKS
DULUTH         FAIR      20  12  71 E3        30.15F
6HR MIN TEMP:  19; 6HR MAX TEMP:  25;

ELY            CLEAR     14   7  73 SE5       30.15S WCI   6
HIBBING        CLEAR     14   4  64 CALM      30.15R
EVELETH        CLEAR     16   7  67 NE3       30.16S
DULUTH HARBOR  CLEAR     27  10  50 CALM      30.21S
TWO HARBORS    CLEAR     19  12  73 N5        30.17R WCI  13
SILVER BAY     CLEAR     10   7  85 CALM      30.17S
GRAND MARAIS     N/A     13   8  81 NW5       30.22S WCI   5
G MARAIS ARPRT CLEAR      0  -8  71 W3        30.14R
$$
MNZ029>031-032-039>041-046>048-054>057-064-280700-
   West Central Minnesota

CITY           SKY/WX    TMP DP  RH WIND       PRES   REMARKS
FERGUS FALLS   CLOUDY    28  16  59 S7        30.14F WCI  21
WHEATON        CLOUDY    28  25  86 SE5       30.14S WCI  23
MORRIS         CLOUDY    28  23  80 SE9       30.12S WCI  20
ALEXANDRIA     PTCLDY    25  15  66 SE7       30.13S WCI  17
ELBOW LAKE     CLOUDY    28  19  68 SE7       30.12S WCI  21
WADENA         CLEAR     21  14  73 CALM      30.12S
GLENWOOD       CLOUDY    27  18  69 SE6       30.13S WCI  20
APPLETON       CLOUDY    30  25  80 SE3       30.13S
BENSON         CLOUDY    28  19  69 S6        30.14R WCI  22
ORTONVILLE     CLOUDY    30  21  69 SE7       30.11S WCI  23
MADISON        CLOUDY    30  25  80 S9        30.12S WCI  22
WILLMAR        FAIR      28  18  64 SE8       30.16S WCI  20
$$
MNZ033>034-036-042>043-049>051-058-059-280700-
   Central Minnesota

CITY           SKY/WX    TMP DP  RH WIND       PRES   REMARKS
ST CLOUD       CLOUDY    24  14  65 CALM      30.16R
6HR MIN TEMP:  24; 6HR MAX TEMP:  32;

SAUK CENTRE    FAIR      26  17  70 SE3       30.14S
PAYNESVILLE    CLOUDY    24  12  62 E5        30.15S WCI  18
AITKIN         CLEAR     19  14  79 CALM      30.13S
PINE RIVER     CLEAR     21  14  73 CALM      30.16F
BRAINERD       CLEAR     19  14  81 CALM      30.15R
STAPLES        MOCLDY    23  12  63 CALM      30.13S
LONG PRAIRIE   FAIR      25  18  74 SE3       30.14S
LITTLE FALLS   PTCLDY    25  12  58 CALM      30.16S
LITCHFIELD     CLOUDY    27  16  63 CALM      30.16S
BUFFALO        CLOUDY    27  12  54 CALM      30.18S
MAPLE LAKE     CLOUDY    27  17  65 CALM      30.17S
$$
MNZ037-044-045-052-053-280700-
   East Central Minnesota

CITY           SKY/WX    TMP DP  RH WIND       PRES   REMARKS
PRINCETON      CLOUDY    23  14  68 CALM      30.17R
MORA           CLEAR     21  14  73 CALM      30.18S
CAMBRIDGE      PTCLDY    27  14  59 CALM      30.16R
RUSH CITY      MOCLDY    24  14  65 CALM      30.18S
MOOSE LAKE     CLEAR     21   3  45 CALM      30.15S
HINCKLEY       FAIR      23  18  80 CALM      30.17R
CLOQUET        CLEAR     19  14  79 CALM      30.15F
MCGREGOR       CLEAR     21  10  63 E3        30.15S
$$
MNZ071>073-080-081-089-090-097-098-280700-
   Southwest Minnesota

CITY           SKY/WX    TMP DP  RH WIND       PRES   REMARKS
MONTEVIDEO     CLOUDY    28  27  93 S3        30.14S
GRANITE FALLS  CLOUDY    29  26  87 CALM      30.15S
CANBY          CLOUDY    29  26  87 SE7       30.12F WCI  22
MARSHALL       CLOUDY    28  23  80 S7        30.13S WCI  21
REDWOOD FALLS  CLOUDY    31  24  75 SW5       30.14S WCI  26
OLIVIA         CLEAR     28  21  74 SE5       30.14S WCI  23
PIPESTONE      CLOUDY    28  27  93 SE9       30.07F WCI  20
WINDOM         LGT SNOW  28  27  93 CALM      30.13S
WORTHINGTON    CLOUDY    27  23  86 SE7       30.12S WCI  19
JACKSON        LGT SNOW  30  27  86 CALM      30.12F
TRACY          CLOUDY    28  27  93 S3        30.12S
SLAYTON        CLOUDY    27  25  95 CALM      30.11S
$$
MNZ065>067-074>077-082>085-091>093-280700-
   South Central Minnesota

CITY           SKY/WX    TMP DP  RH WIND       PRES   REMARKS
MANKATO        CLOUDY    27  14  59 SE7       30.16S WCI  19
NEW ULM        CLOUDY    27  19  74 SE6       30.15S WCI  20
ST JAMES       CLOUDY    30  23  74 SE8       30.15F WCI  23
FAIRMONT       CLOUDY    28  19  69 SE8       30.13S WCI  20
GLENCOE        CLOUDY    25  18  73 E3        30.16S
FARIBAULT      CLOUDY    25   9  50 SE5       30.18S WCI  19
OWATONNA       PTCLDY    23  10  58 SE6       30.16S WCI  16
WASECA         CLOUDY    25  14  63 SE6       30.17F WCI  18
ALBERT LEA     CLOUDY    25  16  68 SE6       30.15F WCI  18
$$
MNZ078>079-086>088-094>096-280700-
   Southeast Minnesota

CITY           SKY/WX    TMP DP  RH WIND       PRES   REMARKS
ROCHESTER      PTCLDY    18  11  74 S5        30.16F WCI  11
6HR MIN TEMP:  18; 6HR MAX TEMP:  26;

RED WING       MOCLDY    21  16  79 CALM      30.19S
STANTON        MOCLDY    21  12  67 CALM      30.17S
DODGE CENTER   PTCLDY    19  12  73 S3        30.16S
WINONA         CLEAR     23  14  68 CALM      30.22S
AUSTIN         PTCLDY    21  14  73 CALM      30.16F
PRESTON        PTCLDY    20  11  67 CALM      30.17S
$$
ABBREVIATIONS USED IN REMARKS
   TC - TEMPERATURES IN CELSIUS
  WCI - WIND CHILL INDEX
   HX - HEAT INDEX
  VSB - VISIBILITY
$$



USA.gov is the U.S. government's official web portal to all federal, state and local government web resources and services.